Overview Statistics Trail Chart Weather Telemetry Raw packets
 

This is the latest recevied weather packets stored in our database for station/object OM6ACB-6. If no packets are shown the sender has not sent any weather packets the latest 10 day(s).

<< 47 48 49 50 51 52 53 >>
Time Temp. Humidity Pressure Rain* Wind** Luminosity Snow
1787935242 25° C 20% 1020.1 hPa 0 mm - - -
1787934641 25.56° C 20% 1020.1 hPa 0 mm - - -
1787934041 25.56° C 20% 1020 hPa 0 mm - - -
1787933441 25.56° C 20% 1019.9 hPa 0 mm - - -
1787932840 28.89° C 20% 1020.5 hPa 0 mm - - -
1787932240 29.44° C 20% 1020.5 hPa 0 mm - - -
1787931640 28.89° C 20% 1020.5 hPa 0 mm - - -
1787931039 30° C 20% 1020.6 hPa 0 mm - - -
1787930439 30° C 20% 1020.7 hPa 0 mm - - -
1787929839 30.56° C 20% 1020.9 hPa 0 mm - - -
1787929239 30.56° C 20% 1021.1 hPa 0 mm - - -
1787928638 30° C 20% 1021 hPa 0 mm - - -
1787928038 28.89° C 20% 1021.2 hPa 0 mm - - -
1787927438 30.56° C 20% 1021.4 hPa 0 mm - - -
1787926837 29.44° C 20% 1021.4 hPa 0 mm - - -
1787926237 30° C 20% 1021.6 hPa 0 mm - - -
1787925637 30° C 20% 1021.6 hPa 0 mm - - -
1787925037 29.44° C 20% 1021.7 hPa 0 mm - - -
1787924436 29.44° C 20% 1021.9 hPa 0 mm - - -
1787923836 29.44° C 20% 1021.9 hPa 0 mm - - -
1787923236 30° C 20% 1022.1 hPa 0 mm - - -
1787922635 29.44° C 20% 1022.2 hPa 0 mm - - -
1787922035 28.89° C 20% 1022.2 hPa 0 mm - - -
1787921435 29.44° C 20% 1022.4 hPa 0 mm - - -
1787920835 29.44° C 20% 1022.5 hPa 0 mm - - -

* Rain latest hour (hover to see other rain measurements)
** Current wind speed in m/s (hover to see current wind gust speed)